Flag for U.S.A. Weather past 2 weeks in Huntsville, Alabama, U.S.A.

Now
76 °F

Scattered clouds.


Feels Like: 77 °F
Forecast: 65 / 84 °F
Wind: 7 mph from Southeast

Location: Huntsville International / Jones Field

Current Time: May 29, 2015 at 8:15:32 PM

Latest Report: May 29, 2015 at 7:53 PM


Visibility: 10 mi

Pressure: 30.06 "Hg

Humidity: 72%

Dew point: 66 °F

Location of HuntsvilleLocation

Historic Weather in Huntsville — Graph

°F

Huntsville temperature yesterday

Maximum temperature yesterday: 82 °F (at 3:53 PM)
Minimum temperature yesterday: 67 °F (at 2:53 AM)
Average temperature yesterday: 73 °F

Past Weeks' High & Low Weather Summary

 TemperatureHumidityPressure
High87 °F (May 19, 3:53 PM)100% (May 28, 1:53 AM)30.33 "Hg (May 28, 1:53 AM)
Low48 °F (May 22, 5:53 AM)31% (May 22, 4:53 PM)29.87 "Hg (May 20, 5:53 PM)
Average73 °F74%30.13 "Hg
* Reported May 14 6:53 PM — May 29 6:53 PM, Huntsville, Weather by CustomWeather, © 2015

Note: Actual official high and low records may vary slightly from our data, if they occured in-between our weather recording intervals... More about our weather records

Advertising

Huntsville weather history for previous 24 hours

 ConditionsComfort  
Time TempWeatherWind HumidityBarometerVisibility
6:53 PM
Fri, May 29
79 °FScattered clouds.10 mph62%30.07 "Hg10 mi
5:53 PM83 °FScattered clouds.12 mph59%30.06 "Hg10 mi
4:53 PM84 °FScattered clouds.14 mph59%30.06 "Hg10 mi
3:53 PM83 °FPartly sunny.8 mph61%30.08 "Hg10 mi
2:53 PM83 °FPartly sunny.13 mph61%30.10 "Hg10 mi
1:53 PM82 °FBroken clouds.12 mph63%30.12 "Hg10 mi
12:53 PM81 °FBroken clouds.14 mph65%30.15 "Hg10 mi
11:53 AM79 °FBroken clouds.12 mph69%30.16 "Hg10 mi
10:53 AM77 °FPartly sunny.13 mph71%30.17 "Hg10 mi
9:53 AM76 °FPartly sunny.9 mph72%30.17 "Hg10 mi
8:53 AM75 °FBroken clouds.9 mph76%30.16 "Hg10 mi
7:53 AM72 °FScattered clouds.8 mph84%30.15 "Hg10 mi
6:53 AM69 °FPartly sunny.9 mph87%30.13 "Hg10 mi
5:53 AM68 °FPassing clouds.6 mph90%30.12 "Hg10 mi
4:53 AM68 °FPassing clouds.6 mph90%30.10 "Hg10 mi
3:53 AM69 °FPassing clouds.7 mph90%30.09 "Hg10 mi
2:53 AM69 °FOvercast.6 mph90%30.09 "Hg10 mi
1:53 AM69 °FPassing clouds.5 mph90%30.08 "Hg10 mi
12:53 AM70 °FClear.3 mph87%30.07 "Hg10 mi
11:53 PM
Thu, May 28
70 °FPassing clouds.7 mph87%30.11 "Hg10 mi
10:53 PM71 °FPassing clouds.7 mph84%30.14 "Hg10 mi
9:53 PM72 °FPassing clouds.8 mph84%30.15 "Hg10 mi
8:53 PM73 °FPartly cloudy.7 mph84%30.14 "Hg10 mi
Weather by CustomWeather, © 2015

See weather overviewHow to use our weather pages